Home   Weather   Konstanz   Past weeks

Flag for Germany Past Weather in Konstanz, Baden-Württemberg, Germany — Yesterday and Last 2 Weeks

Now
16 °F

Ice fog.


Feels Like: 5 °F
Forecast: 15 / 32 °F
Wind: 8 mph from Northeast

Location: Friedrichshafen Airport

Current Time: Jan 22, 2017 at 12:48:52 am

Latest Report: Jan 21, 2017 at 11:50 pm


Visibility: 2 mi

Pressure: 30.36 "Hg

Humidity: 93%

Dew Point: 14 °F

Location of KonstanzLocation

Past Weather in Konstanz — Graph

°F

Konstanz Temperature Yesterday

Maximum temperature yesterday: 23 °F (at 1:20 pm)
Minimum temperature yesterday: 16 °F (at 11:20 pm)
Average temperature yesterday: 19 °F

High & Low Weather Summary for the Past Weeks

 TemperatureHumidityPressure
High43 °F (Jan 12, 12:50 pm)100% (Jan 8, 1:20 am)30.63 "Hg (Jan 8, 1:20 am)
Low5 °F (Jan 7, 5:50 am)64% (Jan 18, 12:20 pm)29.47 "Hg (Jan 13, 12:20 am)
Average27 °F85%30.19 "Hg
* Reported Jan 6 11:20 pm — Jan 21 11:20 pm, Konstanz, Weather by CustomWeather, © 2017

Note: Actual official high and low records may vary slightly from our data, if they occured in-between our weather recording intervals... More about our weather records

Advertising

Konstanz Weather History for the Previous 24 Hours

Scroll right to see more
 ConditionsComfort  
Time TempWeatherWind HumidityBarometerVisibility
11:20 pm
Sat, Jan 21
16 °FIce fog.7 mph93%30.36 "Hg2 mi
10:50 pm18 °FIce fog.7 mph93%30.36 "Hg2 mi
10:20 pm18 °FIce fog.7 mph93%30.36 "Hg2 mi
9:50 pm18 °FIce fog.7 mph93%30.36 "Hg2 mi
9:20 pm18 °FIce fog.7 mph93%30.36 "Hg2 mi
8:50 pm18 °FIce fog.6 mph93%30.36 "Hg2 mi
8:20 pm19 °FIce fog.5 mph93%30.36 "Hg2 mi
7:50 pm19 °FIce fog.2 mph93%30.36 "Hg2 mi
7:20 pm19 °FIce fog.5 mph100%30.36 "Hg3 mi
6:50 pm21 °FIce fog.2 mph93%30.36 "Hg3 mi
6:20 pm21 °FIce fog.3 mph93%30.36 "Hg2 mi
5:50 pm21 °FIce fog.5 mph93%30.33 "Hg2 mi
5:20 pm21 °FIce fog.6 mph93%30.33 "Hg2 mi
4:50 pm21 °FIce fog.2 mph100%30.36 "Hg2 mi
4:20 pm21 °FIce fog.3 mph100%30.36 "Hg2 mi
3:50 pm23 °FIce fog.3 mph93%30.36 "Hg2 mi
3:20 pm23 °FIce fog.1 mph93%30.36 "Hg2 mi
2:50 pm23 °FIce fog.2 mph93%30.36 "Hg2 mi
2:20 pm23 °FIce fog.3 mph93%30.36 "Hg2 mi
1:50 pm23 °FIce fog.1 mph93%30.36 "Hg2 mi
1:20 pm23 °FIce fog.No wind93%30.39 "Hg2 mi
12:50 pm21 °FIce fog.2 mph100%30.39 "Hg2 mi
12:20 pm21 °FIce fog.1 mph100%30.39 "Hg1 mi
11:50 am21 °FIce fog.2 mph100%30.39 "Hg1 mi
11:20 am21 °FIce fog.3 mph93%30.39 "Hg1 mi
10:50 am19 °FIce fog.3 mph100%30.42 "Hg1 mi
10:20 am19 °FIce fog.3 mph93%30.42 "Hg1 mi
9:50 am19 °FIce fog.3 mph93%30.42 "Hg1 mi
9:20 am19 °FIce fog.3 mph93%30.42 "Hg1 mi
8:50 am18 °FIce fog.5 mph100%30.42 "Hg2 mi
8:20 am19 °FIce fog.5 mph93%30.42 "Hg1 mi
7:20 am19 °FIce fog.6 mph93%30.39 "Hg1 mi
6:50 am18 °FIce fog.5 mph100%30.39 "Hg1 mi
6:20 am18 °FCold.6 mph100%30.39 "Hg1 mi
6:05 am18 °FCold.7 mph100%30.39 "Hg1 mi
5:42 am18 °FCold.6 mph100%30.39 "Hg1 mi
5:05 am18 °FCold.6 mph100%30.39 "Hg1 mi
4:35 am18 °FCold.6 mph100%30.39 "Hg1 mi
3:50 am18 °FCold.6 mph93%30.42 "Hg1 mi
3:33 am18 °FCold.6 mph93%30.42 "Hg1 mi
2:50 am18 °FIce fog.7 mph93%30.42 "Hg2 mi
2:20 am18 °FIce fog.6 mph93%30.42 "Hg2 mi
2:05 am18 °FIce fog.6 mph93%30.42 "Hg2 mi
1:20 am18 °FIce fog.6 mph93%30.42 "Hg2 mi
12:50 am18 °FIce fog.5 mph93%30.45 "Hg2 mi
12:20 am18 °FIce fog.6 mph93%30.45 "Hg2 mi
Weather by CustomWeather, © 2017

See weather overviewHow to use our weather pages